Flag for Micronesia Weather past 2 weeks in Weno, Truk, Micronesia

Now
83 °F

Overcast.


Feels Like: 92 °F
Forecast: 78 / 87 °F
Wind: 8 mph from West

Location: Truk Intl / Moen Island

Current Time: Jul 28, 2014 at 7:14:31 PM

Latest Report: Jul 28, 2014 at 6:50 PM


Visibility: 15 mi

Pressure: 29.78 "Hg

Humidity: 81%

Dew point: 77 °F

Location of WenoLocation

Historic Weather in Weno — Graph

°F

Weno temperature yesterday

Maximum temperature yesterday: 83 °F (at 9:50 AM)
Minimum temperature yesterday: 76 °F (at 1:58 AM)
Average temperature yesterday: 81 °F

Past Weeks' High & Low Weather Summary

 TemperatureHumidityPressure
High89 °F (Jul 15, 12:50 PM)100% (Jul 15, 5:50 AM)29.91 "Hg (Jul 15, 5:50 AM)
Low75 °F (Jul 25, 3:52 AM)76% (Jul 23, 2:51 PM)29.67 "Hg (Jul 24, 3:50 AM)
Average81 °F92%29.79 "Hg
* Reported Jul 13 5:50 PM — Jul 28 5:50 PM, Weno, Weather by CustomWeather, © 2014

Note: Actual official high and low records may vary slightly from our data, if they occured in-between our weather recording intervals... More about our weather records

Advertising

Weno weather history for previous 24 hours

 ConditionsComfort  
Time TempWeatherWind HumidityBarometerVisibility
5:50 PM
Jul 28
84 °FCloudy.8 mph80%29.76 "Hg15 mi
4:50 PM85 °FCloudy.12 mph77%29.73 "Hg15 mi
3:50 PM85 °FCloudy.12 mph77%29.73 "Hg15 mi
2:50 PM87 °FCloudy.12 mph76%29.73 "Hg15 mi
1:50 PM86 °FCloudy.12 mph76%29.74 "Hg15 mi
12:50 PM85 °FCloudy.14 mph76%29.77 "Hg15 mi
11:51 AM85 °FCloudy.14 mph76%29.78 "Hg15 mi
10:50 AM83 °FCloudy.16 mph82%29.81 "Hg15 mi
9:53 AM82 °FMostly cloudy.17 mph86%29.84 "Hg15 mi
8:50 AM84 °FMostly cloudy.14 mph80%29.84 "Hg15 mi
7:50 AM83 °FMostly cloudy.14 mph78%29.82 "Hg15 mi
6:50 AM83 °FCloudy.14 mph86%29.80 "Hg15 mi
5:54 AM83 °FMostly cloudy.14 mph81%29.79 "Hg15 mi
4:50 AM83 °FMostly cloudy.14 mph81%29.76 "Hg15 mi
3:50 AM83 °FOvercast.14 mph85%29.75 "Hg15 mi
2:52 AM83 °FOvercast.14 mph84%29.76 "Hg15 mi
1:52 AM83 °FMostly cloudy.12 mph83%29.76 "Hg15 mi
12:51 AM83 °FMostly cloudy.12 mph88%29.78 "Hg15 mi
11:55 PM
Jul 27
83 °FMostly cloudy.10 mph89%29.79 "Hg15 mi
10:50 PM83 °FMostly cloudy.12 mph90%29.81 "Hg15 mi
9:50 PM83 °FMostly cloudy.12 mph90%29.81 "Hg15 mi
8:51 PM83 °FOvercast.10 mph89%29.82 "Hg15 mi
7:50 PM83 °FOvercast.8 mph88%29.80 "Hg15 mi
Weather by CustomWeather, © 2014

See weather overviewHow to use our weather pages